TimeCDT,TemperatureF,Dew PointF,Humidity,Sea Level PressureIn,VisibilityMPH,Wind Direction,Wind SpeedMPH,Gust SpeedMPH,PrecipitationIn,Events,Conditions,WindDirDegrees,DateUTC
12:15 AM,49.1,44.1,83,30.18,10.0,NNE,6.9,-,N/A,,Clear,30,2012-09-28 05:15:00
12:35 AM,49.8,44.1,81,30.18,10.0,NE,4.6,-,N/A,,Clear,40,2012-09-28 05:35:00
12:55 AM,49.3,43.7,81,30.18,10.0,North,4.6,-,N/A,,Clear,10,2012-09-28 05:55:00
1:15 AM,48.2,43.0,82,30.18,10.0,North,4.6,-,N/A,,Clear,10,2012-09-28 06:15:00
1:35 AM,48.2,43.0,82,30.18,10.0,North,4.6,-,N/A,,Clear,10,2012-09-28 06:35:00
1:55 AM,47.3,42.4,83,30.18,10.0,North,5.8,-,N/A,,Clear,10,2012-09-28 06:55:00
2:15 AM,47.1,42.6,84,30.17,10.0,North,6.9,-,N/A,,Clear,10,2012-09-28 07:15:00
2:35 AM,46.8,42.1,84,30.17,10.0,North,5.8,-,N/A,,Clear,360,2012-09-28 07:35:00
2:55 AM,46.8,41.4,81,30.17,10.0,North,4.6,-,N/A,,Clear,360,2012-09-28 07:55:00
3:15 AM,46.4,41.5,83,30.16,10.0,North,5.8,-,N/A,,Clear,360,2012-09-28 08:15:00
3:35 AM,45.1,40.5,84,30.16,10.0,North,6.9,-,N/A,,Clear,350,2012-09-28 08:35:00
3:55 AM,45.9,41.0,83,30.16,10.0,North,5.8,-,N/A,,Clear,10,2012-09-28 08:55:00
4:15 AM,45.3,40.5,83,30.16,10.0,North,5.8,-,N/A,,Clear,10,2012-09-28 09:15:00
4:35 AM,44.2,39.4,83,30.17,10.0,North,6.9,-,N/A,,Clear,360,2012-09-28 09:35:00
4:55 AM,43.3,39.0,85,30.17,10.0,NNW,5.8,-,N/A,,Clear,340,2012-09-28 09:55:00
5:15 AM,43.0,39.2,86,30.17,10.0,NNW,6.9,-,N/A,,Clear,330,2012-09-28 10:15:00
5:35 AM,43.2,39.6,87,30.18,10.0,NNW,6.9,-,N/A,,Clear,340,2012-09-28 10:35:00
5:55 AM,44.6,40.3,85,30.18,10.0,North,8.1,-,N/A,,Clear,350,2012-09-28 10:55:00
6:15 AM,44.6,40.1,84,30.17,10.0,North,8.1,-,N/A,,Clear,350,2012-09-28 11:15:00
6:35 AM,43.9,39.7,85,30.18,10.0,North,8.1,-,N/A,,Clear,350,2012-09-28 11:35:00
6:55 AM,44.2,40.3,86,30.18,10.0,NNW,8.1,-,N/A,,Clear,340,2012-09-28 11:55:00
7:15 AM,44.6,40.5,85,30.19,10.0,NNW,8.1,-,N/A,,Clear,340,2012-09-28 12:15:00
7:35 AM,45.9,41.0,83,30.19,10.0,North,8.1,-,N/A,,Clear,350,2012-09-28 12:35:00
7:55 AM,47.3,41.9,82,30.18,10.0,North,8.1,-,N/A,,Clear,350,2012-09-28 12:55:00
8:15 AM,49.1,43.2,80,30.19,10.0,NNW,6.9,-,N/A,,Clear,340,2012-09-28 13:15:00
8:35 AM,52.0,44.1,74,30.19,10.0,North,9.2,-,N/A,,Clear,350,2012-09-28 13:35:00
8:55 AM,54.7,45.0,70,30.20,10.0,North,9.2,-,N/A,,Clear,360,2012-09-28 13:55:00
9:15 AM,56.5,44.2,64,30.20,10.0,North,15.0,19.6,N/A,,Clear,360,2012-09-28 14:15:00
9:35 AM,57.9,43.5,59,30.21,10.0,North,12.7,19.6,N/A,,Clear,360,2012-09-28 14:35:00
9:55 AM,59.5,43.7,56,30.21,10.0,North,16.1,19.6,N/A,,Clear,360,2012-09-28 14:55:00
10:15 AM,59.9,42.6,53,30.21,10.0,North,11.5,-,N/A,,Clear,360,2012-09-28 15:15:00
10:35 AM,61.5,42.6,50,30.20,10.0,North,16.1,19.6,N/A,,Clear,360,2012-09-28 15:35:00
10:55 AM,62.6,43.0,49,30.21,10.0,North,15.0,19.6,N/A,,Clear,10,2012-09-28 15:55:00
11:15 AM,63.0,42.8,48,30.20,10.0,North,15.0,19.6,N/A,,Clear,360,2012-09-28 16:15:00
11:35 AM,64.4,43.7,47,30.20,10.0,North,13.8,-,N/A,,Clear,350,2012-09-28 16:35:00
11:55 AM,65.3,43.5,45,30.19,10.0,North,12.7,19.6,N/A,,Clear,360,2012-09-28 16:55:00
12:15 PM,66.0,43.7,44,30.19,10.0,NNE,12.7,-,N/A,,Clear,20,2012-09-28 17:15:00
12:35 PM,67.5,44.6,44,30.18,10.0,NNE,15.0,-,N/A,,Clear,20,2012-09-28 17:35:00
12:55 PM,67.1,44.2,44,30.17,10.0,NE,12.7,18.4,N/A,,Clear,50,2012-09-28 17:55:00
1:15 PM,68.4,44.6,42,30.16,10.0,ENE,15.0,19.6,N/A,,Clear,60,2012-09-28 18:15:00
1:35 PM,68.5,44.2,42,30.15,10.0,North,8.1,-,N/A,,Clear,360,2012-09-28 18:35:00
1:55 PM,69.1,44.4,41,30.14,10.0,NE,11.5,-,N/A,,Clear,40,2012-09-28 18:55:00
2:15 PM,70.0,45.1,41,30.14,10.0,NE,10.4,16.1,N/A,,Clear,40,2012-09-28 19:15:00
2:35 PM,69.8,44.4,40,30.13,10.0,North,6.9,-,N/A,,Clear,10,2012-09-28 19:35:00
2:55 PM,70.7,44.4,39,30.12,10.0,ENE,10.4,-,N/A,,Clear,60,2012-09-28 19:55:00
3:15 PM,70.5,44.4,39,30.11,10.0,NE,9.2,-,N/A,,Clear,40,2012-09-28 20:15:00
3:35 PM,70.7,44.1,38,30.11,10.0,North,4.6,-,N/A,,Clear,360,2012-09-28 20:35:00
3:55 PM,70.7,44.6,39,30.11,10.0,NNE,6.9,-,N/A,,Clear,20,2012-09-28 20:55:00
4:15 PM,70.9,44.1,38,30.11,10.0,NNE,10.4,-,N/A,,Clear,20,2012-09-28 21:15:00
4:35 PM,70.7,44.4,39,30.11,10.0,NNE,9.2,-,N/A,,Clear,20,2012-09-28 21:35:00
4:55 PM,70.3,45.1,40,30.10,10.0,NE,6.9,-,N/A,,Clear,40,2012-09-28 21:55:00
5:15 PM,70.0,45.0,41,30.11,10.0,NNE,8.1,-,N/A,,Clear,30,2012-09-28 22:15:00
5:35 PM,69.4,44.2,40,30.11,10.0,NNW,4.6,-,N/A,,Clear,340,2012-09-28 22:35:00
5:55 PM,68.7,45.1,43,30.11,10.0,NNE,4.6,-,N/A,,Clear,20,2012-09-28 22:55:00
6:15 PM,67.3,44.2,43,30.11,10.0,NNW,5.8,-,N/A,,Clear,340,2012-09-28 23:15:00
6:35 PM,66.6,43.2,43,30.12,10.0,North,5.8,-,N/A,,Clear,360,2012-09-28 23:35:00
6:55 PM,63.1,43.3,48,30.11,10.0,North,4.6,-,N/A,,Clear,10,2012-09-28 23:55:00
7:15 PM,61.3,43.2,51,30.11,10.0,North,6.9,-,N/A,,Clear,10,2012-09-29 00:15:00
7:35 PM,58.5,43.2,57,30.11,10.0,NE,9.2,-,N/A,,Clear,40,2012-09-29 00:35:00
7:55 PM,59.9,43.2,54,30.12,10.0,NE,6.9,-,N/A,,Clear,40,2012-09-29 00:55:00
8:15 PM,59.7,44.8,58,30.12,10.0,NNE,4.6,-,N/A,,Clear,30,2012-09-29 01:15:00
8:35 PM,57.7,44.8,62,30.13,10.0,ENE,5.8,-,N/A,,Clear,60,2012-09-29 01:35:00
8:55 PM,57.2,45.5,65,30.13,10.0,ENE,4.6,-,N/A,,Clear,60,2012-09-29 01:55:00
9:15 PM,55.0,45.7,71,30.13,10.0,ENE,4.6,-,N/A,,Clear,70,2012-09-29 02:15:00
9:35 PM,56.5,46.8,70,30.13,10.0,ENE,4.6,-,N/A,,Clear,70,2012-09-29 02:35:00
9:55 PM,54.7,45.9,72,30.14,10.0,ENE,3.5,-,N/A,,Clear,70,2012-09-29 02:55:00
10:15 PM,54.7,46.4,74,30.14,10.0,Calm,Calm,-,N/A,,Clear,0,2012-09-29 03:15:00
10:35 PM,54.7,46.9,75,30.14,10.0,ENE,4.6,-,N/A,,Clear,70,2012-09-29 03:35:00
10:55 PM,51.8,45.5,79,30.14,10.0,ENE,3.5,-,N/A,,Clear,70,2012-09-29 03:55:00
11:15 PM,52.2,46.4,81,30.14,10.0,East,3.5,-,N/A,,Clear,90,2012-09-29 04:15:00
11:35 PM,53.2,46.0,77,30.14,10.0,Calm,Calm,-,N/A,,Clear,0,2012-09-29 04:35:00
11:55 PM,50.4,45.1,82,30.13,10.0,Calm,Calm,-,N/A,,Clear,0,2012-09-29 04:55:00